{"data":{"norad_id":60100,"epoch":"2026-05-25T03:12:24.503616Z","epoch_age_seconds":53601,"freshness":"FRESH","line1":"1 60100U 24117K   26145.13361694  .00000701  00000+0  35792-4 0  9990","line2":"2 60100  53.1607  41.8172 0001168  87.0362 273.0773 15.30198877108597","mean_motion":15.30198877,"eccentricity":0.0001168,"inclination_deg":53.1607,"raan_deg":41.8172,"arg_perigee_deg":87.0362,"mean_anomaly_deg":273.0773,"bstar":3.5792e-5,"rev_number":10859,"period_min":94.10541476956,"perigee_km":474.4179505836,"apogee_km":476.0188944103,"semimajor_km":6853.355422497,"source":"CELESTRAK","updated_at":"2026-05-25T13:38:19.161825Z"}}